Location: Brahman Valley
(40.6513°N, 111.8855°W)
Time: 09:25:41
(UTC+00:00)

Tiros 1 despin weight - Pass Details

Date: 18 May 2021
Orbit: 594 x 641 km, 48.2° (Epoch: 22 June)

Event Time Altitude Azimuth Distance (km) Brightness Sun altitude
Rises 00:48:46 0° 211° (SSW) 2,881 ? 19.1°
Reaches altitude 10° 00:51:14 10° 202° (SSW) 1,987 ? 18.7°
Maximum altitude 00:55:20 33° 138° (SE) 1,062 ? 17.9°
Drops below altitude 10° 00:59:29 10° 75° (ENE) 2,019 ? 17.1°
Sets 01:02:00 0° 66° (ENE) 2,936 ? 16.7°
